Time,TemperatureF,DewpointF,PressureIn,WindDirection,WindDirectionDegrees,WindSpeedMPH,WindSpeedGustMPH,Humidity,HourlyPrecipIn,Conditions,Clouds,dailyrainin,SolarRadiationWatts/m^2,SoftwareType,DateUTC
2013-08-02 00:22:00,51.0,44.0,-100.00,SSE,148,4.0,9.0,76,0.00,,,0.01,0.000000,,2013-08-02 06:22:00,
2013-08-02 00:33:00,51.0,44.0,-100.00,SSE,148,4.0,9.0,76,0.00,,,0.01,0.000000,,2013-08-02 06:33:00,
2013-08-02 00:43:00,51.0,44.0,-100.00,SSE,148,4.0,9.0,76,0.00,,,0.01,0.000000,,2013-08-02 06:43:00,
2013-08-02 00:52:00,51.0,44.0,-100.00,SSE,148,4.0,9.0,76,0.00,,,0.01,0.000000,,2013-08-02 06:52:00,
2013-08-02 01:22:00,50.0,42.0,-100.00,South,174,7.0,9.0,74,0.00,,,0.01,0.000000,,2013-08-02 07:22:00,
2013-08-02 01:33:00,50.0,42.0,-100.00,South,174,7.0,9.0,74,0.00,,,0.01,0.000000,,2013-08-02 07:33:00,
2013-08-02 01:44:00,50.0,42.0,-100.00,South,174,7.0,9.0,74,0.00,,,0.01,0.000000,,2013-08-02 07:44:00,
2013-08-02 01:53:00,50.0,42.0,-100.00,South,174,7.0,9.0,74,0.00,,,0.01,0.000000,,2013-08-02 07:53:00,
2013-08-02 02:22:00,48.0,42.0,-100.00,SSE,149,4.0,10.0,81,0.00,,,0.01,0.000000,,2013-08-02 08:22:00,
2013-08-02 02:33:00,48.0,42.0,-100.00,SSE,149,4.0,10.0,81,0.00,,,0.01,0.000000,,2013-08-02 08:33:00,
2013-08-02 02:43:00,48.0,42.0,-100.00,SSE,149,4.0,10.0,81,0.00,,,0.01,0.000000,,2013-08-02 08:43:00,
2013-08-02 02:53:00,48.0,42.0,-100.00,SSE,149,4.0,10.0,81,0.00,,,0.01,0.000000,,2013-08-02 08:53:00,
2013-08-02 03:23:00,49.0,43.0,-100.00,SSE,147,5.0,9.0,80,0.00,,,0.01,1.000000,,2013-08-02 09:23:00,
2013-08-02 03:33:00,49.0,43.0,-100.00,SSE,147,5.0,9.0,80,0.00,,,0.01,1.000000,,2013-08-02 09:33:00,
2013-08-02 03:43:00,49.0,43.0,-100.00,SSE,147,5.0,9.0,80,0.00,,,0.01,1.000000,,2013-08-02 09:43:00,
2013-08-02 03:53:00,49.0,43.0,-100.00,SSE,147,5.0,9.0,80,0.00,,,0.01,1.000000,,2013-08-02 09:53:00,
2013-08-02 04:23:00,48.0,44.0,-100.00,SE,133,5.0,7.0,86,0.00,,,0.01,1.000000,,2013-08-02 10:23:00,
2013-08-02 04:33:00,48.0,44.0,-100.00,SE,133,5.0,7.0,86,0.00,,,0.01,1.000000,,2013-08-02 10:33:00,
2013-08-02 04:43:00,48.0,44.0,-100.00,SE,133,5.0,7.0,86,0.00,,,0.01,1.000000,,2013-08-02 10:43:00,
2013-08-02 04:52:00,48.0,44.0,-100.00,SE,133,5.0,7.0,86,0.00,,,0.01,1.000000,,2013-08-02 10:52:00,
2013-08-02 05:22:00,48.0,44.0,-100.00,SSE,152,6.0,9.0,87,0.00,,,0.01,0.000000,,2013-08-02 11:22:00,
2013-08-02 05:32:00,48.0,44.0,-100.00,SSE,152,6.0,9.0,87,0.00,,,0.01,0.000000,,2013-08-02 11:32:00,
2013-08-02 05:43:00,48.0,44.0,-100.00,SSE,152,6.0,9.0,87,0.00,,,0.01,0.000000,,2013-08-02 11:43:00,
2013-08-02 05:52:00,48.0,44.0,-100.00,SSE,152,6.0,9.0,87,0.00,,,0.01,0.000000,,2013-08-02 11:52:00,
2013-08-02 06:22:00,48.0,44.0,-100.00,SE,146,5.0,7.0,86,0.00,,,0.01,1.000000,,2013-08-02 12:22:00,
2013-08-02 06:33:00,48.0,44.0,-100.00,SE,146,5.0,7.0,86,0.00,,,0.01,1.000000,,2013-08-02 12:33:00,
2013-08-02 06:43:00,48.0,44.0,-100.00,SE,146,5.0,7.0,86,0.00,,,0.01,1.000000,,2013-08-02 12:43:00,
2013-08-02 06:52:00,48.0,44.0,-100.00,SE,146,5.0,7.0,86,0.00,,,0.01,1.000000,,2013-08-02 12:52:00,
2013-08-02 07:22:00,48.0,43.0,-100.00,SE,134,5.0,7.0,83,0.00,,,0.01,10.000000,,2013-08-02 13:22:00,
2013-08-02 07:33:00,48.0,43.0,-100.00,SE,134,5.0,7.0,83,0.00,,,0.01,10.000000,,2013-08-02 13:33:00,
2013-08-02 07:43:00,48.0,43.0,-100.00,SE,134,5.0,7.0,83,0.00,,,0.01,10.000000,,2013-08-02 13:43:00,
2013-08-02 07:52:00,48.0,43.0,-100.00,SE,134,5.0,7.0,83,0.00,,,0.01,10.000000,,2013-08-02 13:52:00,
2013-08-02 08:22:00,55.0,47.0,-100.00,SE,125,5.0,6.0,73,0.00,,,0.01,111.000000,,2013-08-02 14:22:00,
2013-08-02 08:32:00,55.0,47.0,-100.00,SE,125,5.0,6.0,73,0.00,,,0.01,111.000000,,2013-08-02 14:32:00,
2013-08-02 08:43:00,55.0,47.0,-100.00,SE,125,5.0,6.0,73,0.00,,,0.01,111.000000,,2013-08-02 14:43:00,
2013-08-02 08:53:00,55.0,47.0,-100.00,SE,125,5.0,6.0,73,0.00,,,0.01,111.000000,,2013-08-02 14:53:00,
2013-08-02 09:22:00,58.0,47.0,-100.00,SE,138,5.0,8.0,66,0.00,,,-99.99,379.000000,,2013-08-02 15:22:00,
2013-08-02 09:32:00,58.0,47.0,-100.00,SE,138,5.0,8.0,66,0.00,,,-99.99,379.000000,,2013-08-02 15:32:00,
2013-08-02 09:43:00,58.0,47.0,-100.00,SE,138,5.0,8.0,66,0.00,,,-99.99,379.000000,,2013-08-02 15:43:00,
2013-08-02 09:52:00,58.0,47.0,-100.00,SE,138,5.0,8.0,66,0.00,,,-99.99,379.000000,,2013-08-02 15:52:00,
2013-08-02 10:22:00,58.0,49.0,-100.00,SSW,196,6.0,10.0,71,0.00,,,-99.99,437.000000,,2013-08-02 16:22:00,
2013-08-02 10:32:00,58.0,49.0,-100.00,SSW,196,6.0,10.0,71,0.00,,,-99.99,437.000000,,2013-08-02 16:32:00,
2013-08-02 10:43:00,58.0,49.0,-100.00,SSW,196,6.0,10.0,71,0.00,,,-99.99,437.000000,,2013-08-02 16:43:00,
2013-08-02 10:52:00,58.0,49.0,-100.00,SSW,196,6.0,10.0,71,0.00,,,-99.99,437.000000,,2013-08-02 16:52:00,
2013-08-02 11:22:00,62.0,51.0,-100.00,SSW,194,7.0,16.0,66,0.00,,,0.01,603.000000,,2013-08-02 17:22:00,
2013-08-02 11:35:00,62.0,51.0,-100.00,SSW,194,7.0,16.0,66,0.00,,,0.01,603.000000,,2013-08-02 17:35:00,
2013-08-02 11:43:00,62.0,51.0,-100.00,SSW,194,7.0,16.0,66,0.00,,,0.01,603.000000,,2013-08-02 17:43:00,
2013-08-02 11:52:00,62.0,51.0,-100.00,SSW,194,7.0,16.0,66,0.00,,,0.01,603.000000,,2013-08-02 17:52:00,
2013-08-02 12:22:00,64.0,49.0,-100.00,SSE,158,9.0,16.0,59,0.00,,,0.01,905.000000,,2013-08-02 18:22:00,
2013-08-02 12:32:00,64.0,49.0,-100.00,SSE,158,9.0,16.0,59,0.00,,,0.01,905.000000,,2013-08-02 18:32:00,
2013-08-02 12:43:00,64.0,49.0,-100.00,SSE,158,9.0,16.0,59,0.00,,,0.01,905.000000,,2013-08-02 18:43:00,
2013-08-02 12:52:00,64.0,49.0,-100.00,SSE,158,9.0,16.0,59,0.00,,,0.01,905.000000,,2013-08-02 18:52:00,
2013-08-02 13:22:00,67.0,48.0,-100.00,South,185,9.0,14.0,50,0.00,,,-99.99,1008.000000,,2013-08-02 19:22:00,
2013-08-02 13:32:00,67.0,48.0,-100.00,South,185,9.0,14.0,50,0.00,,,-99.99,1008.000000,,2013-08-02 19:32:00,
2013-08-02 13:43:00,67.0,48.0,-100.00,South,185,9.0,14.0,50,0.00,,,-99.99,1008.000000,,2013-08-02 19:43:00,
2013-08-02 13:52:00,67.0,48.0,-100.00,South,185,9.0,14.0,50,0.00,,,-99.99,1008.000000,,2013-08-02 19:52:00,
2013-08-02 14:22:00,67.0,44.0,-100.00,SSW,203,10.0,18.0,44,0.00,,,0.01,989.000000,,2013-08-02 20:22:00,
2013-08-02 14:32:00,67.0,44.0,-100.00,SSW,203,10.0,18.0,44,0.00,,,0.01,989.000000,,2013-08-02 20:32:00,
2013-08-02 14:43:00,67.0,44.0,-100.00,SSW,203,10.0,18.0,44,0.00,,,0.01,989.000000,,2013-08-02 20:43:00,
2013-08-02 14:52:00,67.0,44.0,-100.00,SSW,203,10.0,18.0,44,0.00,,,0.01,989.000000,,2013-08-02 20:52:00,
2013-08-02 15:22:00,69.0,44.0,-100.00,SW,226,11.0,21.0,41,0.00,,,0.01,927.000000,,2013-08-02 21:22:00,
2013-08-02 15:32:00,69.0,44.0,-100.00,SW,226,11.0,21.0,41,0.00,,,0.01,927.000000,,2013-08-02 21:32:00,
2013-08-02 15:43:00,69.0,44.0,-100.00,SW,226,11.0,21.0,41,0.00,,,0.01,927.000000,,2013-08-02 21:43:00,
2013-08-02 15:53:00,69.0,44.0,-100.00,SW,226,11.0,21.0,41,0.00,,,0.01,927.000000,,2013-08-02 21:53:00,
2013-08-02 16:22:00,70.0,43.0,-100.00,SSW,192,10.0,22.0,38,0.00,,,0.01,931.000000,,2013-08-02 22:22:00,
2013-08-02 16:32:00,70.0,43.0,-100.00,SSW,192,10.0,22.0,38,0.00,,,0.01,931.000000,,2013-08-02 22:32:00,
2013-08-02 16:43:00,70.0,43.0,-100.00,SSW,192,10.0,22.0,38,0.00,,,0.01,931.000000,,2013-08-02 22:43:00,
2013-08-02 16:52:00,70.0,43.0,-100.00,SSW,192,10.0,22.0,38,0.00,,,0.01,931.000000,,2013-08-02 22:52:00,
2013-08-02 17:22:00,70.0,43.0,-100.00,SSW,193,11.0,25.0,38,0.00,,,0.01,747.000000,,2013-08-02 23:22:00,
2013-08-02 17:32:00,70.0,43.0,-100.00,SSW,193,11.0,25.0,38,0.00,,,0.01,747.000000,,2013-08-02 23:32:00,
2013-08-02 17:43:00,70.0,43.0,-100.00,SSW,193,11.0,25.0,38,0.00,,,0.01,747.000000,,2013-08-02 23:43:00,
2013-08-02 17:53:00,70.0,43.0,-100.00,SSW,193,11.0,25.0,38,0.00,,,0.01,747.000000,,2013-08-02 23:53:00,
2013-08-02 18:22:00,69.0,36.0,-100.00,SW,229,10.0,19.0,30,0.00,,,0.01,599.000000,,2013-08-03 00:22:00,
2013-08-02 18:33:00,69.0,36.0,-100.00,SW,229,10.0,19.0,30,0.00,,,0.01,599.000000,,2013-08-03 00:33:00,
2013-08-02 18:43:00,69.0,36.0,-100.00,SW,229,10.0,19.0,30,0.00,,,0.01,599.000000,,2013-08-03 00:43:00,
2013-08-02 18:52:00,69.0,36.0,-100.00,SW,229,10.0,19.0,30,0.00,,,0.01,599.000000,,2013-08-03 00:52:00,
2013-08-02 19:22:00,68.0,40.0,-100.00,SSW,209,7.0,15.0,36,0.00,,,0.01,351.000000,,2013-08-03 01:22:00,
2013-08-02 19:32:00,68.0,40.0,-100.00,SSW,209,7.0,15.0,36,0.00,,,0.01,351.000000,,2013-08-03 01:32:00,
2013-08-02 19:42:00,68.0,40.0,-100.00,SSW,209,7.0,15.0,36,0.00,,,0.01,351.000000,,2013-08-03 01:42:00,
2013-08-02 19:53:00,68.0,40.0,-100.00,SSW,209,7.0,15.0,36,0.00,,,0.01,351.000000,,2013-08-03 01:53:00,
2013-08-02 20:22:00,62.0,41.0,-100.00,SW,219,7.0,12.0,46,0.00,,,0.00,121.000000,,2013-08-03 02:22:00,
2013-08-02 20:32:00,62.0,41.0,-100.00,SW,219,7.0,12.0,46,0.00,,,0.00,121.000000,,2013-08-03 02:32:00,
2013-08-02 20:43:00,62.0,41.0,-100.00,SW,219,7.0,12.0,46,0.00,,,0.00,121.000000,,2013-08-03 02:43:00,
2013-08-02 20:52:00,62.0,41.0,-100.00,SW,219,7.0,12.0,46,0.00,,,0.00,121.000000,,2013-08-03 02:52:00,
2013-08-02 21:22:00,60.0,42.0,-100.00,SSW,211,7.0,9.0,51,0.00,,,0.00,11.000000,,2013-08-03 03:22:00,
2013-08-02 21:32:00,60.0,42.0,-100.00,SSW,211,7.0,9.0,51,0.00,,,0.00,11.000000,,2013-08-03 03:32:00,
2013-08-02 21:43:00,60.0,42.0,-100.00,SSW,211,7.0,9.0,51,0.00,,,0.00,11.000000,,2013-08-03 03:43:00,
2013-08-02 21:53:00,60.0,42.0,-100.00,SSW,211,7.0,9.0,51,0.00,,,0.00,11.000000,,2013-08-03 03:53:00,
2013-08-02 22:22:00,59.0,42.0,-100.00,SW,229,4.0,8.0,54,0.00,,,0.00,1.000000,,2013-08-03 04:22:00,
2013-08-02 22:32:00,59.0,42.0,-100.00,SW,229,4.0,8.0,54,0.00,,,0.00,1.000000,,2013-08-03 04:32:00,
2013-08-02 22:43:00,59.0,42.0,-100.00,SW,229,4.0,8.0,54,0.00,,,0.00,1.000000,,2013-08-03 04:43:00,
2013-08-02 22:53:00,59.0,42.0,-100.00,SW,229,4.0,8.0,54,0.00,,,0.00,1.000000,,2013-08-03 04:53:00,
2013-08-02 23:22:00,59.0,41.0,-100.00,SSW,202,3.0,6.0,51,0.00,,,0.00,0.000000,,2013-08-03 05:22:00,
2013-08-02 23:32:00,59.0,41.0,-100.00,SSW,202,3.0,6.0,51,0.00,,,0.00,0.000000,,2013-08-03 05:32:00,
2013-08-02 23:42:00,59.0,41.0,-100.00,SSW,202,3.0,6.0,51,0.00,,,0.00,0.000000,,2013-08-03 05:42:00,
2013-08-02 23:52:00,59.0,41.0,-100.00,SSW,202,3.0,6.0,51,0.00,,,0.00,0.000000,,2013-08-03 05:52:00,